Regional Weather Roundup
Issued by NWS

Home | Current Version | Previous Version | Text Only | Print | Product List | Glossary Off
Versions: 1 2 3 4 5 6 7 8 9 10 11 12 13 14 15 16 17 18 19 20 21 22 23 24 25 26 27 28 29 30 31 32 33 34 35 36 37 38 39 40 41 42 43 44 45 46 47 48 49 50

000
ASUS43 KLMK 230610
RWRKY
SDFRWRKY ALL
KENTUCKY REGIONAL WEATHER ROUNDUP
NATIONAL WEATHER SERVICE LOUISVILLE KY
100 AM EST THU NOV 23 2017

NOTE "FAIR" INDICATES FEW OR NO CLOUDS BELOW 12,000 FEET
WITH NO SIGNIFICANT WEATHER AND/OR OBSTRUCTIONS TO VISIBILITY.

KYZ001>023-026-027-061>063-070>075-230700-
WESTERN AND SOUTH CENTRAL KENTUCKY

CITY           SKY/WX    TMP DP  RH WIND       PRES   REMARKS
PADUCAH        CLOUDY    24  19  81 CALM      30.24F
HENDERSON      CLOUDY    24  23  96 CALM      30.25F
OWENSBORO      CLOUDY    25  22  88 S3        30.23F
HOPKINSVILLE   CLEAR     27  22  82 CALM      30.22R
BOWLING GREEN  CLOUDY    28  24  85 CALM      30.22F
GLASGOW        CLOUDY    27  24  88 CALM      30.20F
$$

KYZ024-025-028>034-038-045-046-053-230700-
NORTH CENTRAL KENTUCKY

CITY           SKY/WX    TMP DP  RH WIND       PRES   REMARKS
LOUISVILLE/SDF CLOUDY    34  24  67 CALM      30.24S
LOUISVILLE/LOU CLOUDY    28  25  88 CALM      30.24F
FORT KNOX      CLOUDY    26  21  83 CALM      30.21S
$$

KYZ035>037-039>044-047>052-055>060-089>105-230700-
NORTHEAST KENTUCKY

CITY           SKY/WX    TMP DP  RH WIND       PRES   REMARKS
LEXINGTON      CLOUDY    25  19  78 CALM      30.21F
COVINGTON      CLOUDY    28  23  81 CALM      30.21F
FRANKFORT      CLOUDY    25  20  81 N3        30.21F
$$

KYZ054-064>069-076>088-106>120-230700-
SOUTHEAST KENTUCKY

CITY           SKY/WX    TMP DP  RH WIND       PRES   REMARKS
JACKSON        CLOUDY    29  22  75 CALM      30.18F
LONDON         CLEAR     29  22  75 N3        30.18F
SOMERSET       CLOUDY    27  23  86 CALM      30.21F
MIDDLESBORO    CLEAR     28  26  93 CALM      30.20S
MONTICELLO     CLEAR     21  19  92 NW3       30.22F
$$




USA.gov is the U.S. government's official web portal to all federal, state and local government web resources and services.